Location: Liberec
(50.7830°N, 15.0500°E)
Time: 19:14:49
(UTC+02:00)

ISS - Pass Details

Date: 19 May 2021
Orbit: 417 x 422 km, 51.6° (Epoch: 16 June)

Event Time Altitude Azimuth Distance (km) Brightness Sun altitude
Rises 22:05:51 0° 254° (WSW) 2,360 0.4 -10.0°
Reaches altitude 10° 22:07:56 10° 254° (WSW) 1,499 -0.6 -10.2°
Maximum altitude 22:11:19 85° 164° (SSE) 426 -3.8 -10.5°
Drops below altitude 10° 22:14:41 10° 78° (ENE) 1,505 -1.2 -10.8°
Sets 22:16:48 0° 78° (ENE) 2,372 -0.2 -11.0°
